Location: Les Thiberg�res
(47.8554°N, 1.0978°W)
Time: 10:44:29
(UTC+00:00)

Cosmos 2016 Rocket - Pass Details

Date: 17 February 2020
Orbit: 948 x 999 km, 83.0° (Epoch: 04 April)

Event Time Altitude Azimuth Distance (km) Brightness Sun altitude
Rises 05:56:15 0° 350° (N) 3,663 6.9 -12.7°
Reaches altitude 10° 05:58:45 10° 350° (N) 2,720 6.2 -12.3°
Maximum altitude 06:05:00 84° 264° (W) 989 4.0 -11.2°
Drops below altitude 10° 06:11:17 10° 176° (S) 2,737 6.5 -10.2°
Sets 06:13:48 0° 176° (S) 3,688 7.2 -9.8°
